Location: Omaha
(41.2590°N, 95.9380°W)
Time: 01:22:53
(UTC-05:00)

Tiangong 1 - Pass Details

Date: 09 October 2017
Orbit: 292 x 320 km, 42.8° (Epoch: 21 October)

Event Time Altitude Azimuth Distance (km) Brightness Sun altitude
Rises 19:39:52 0° 267° (W) 2,042 7.1 -9.8°
Reaches altitude 10° 19:41:52 10° 270° (W) 1,207 5.2 -10.2°
Maximum altitude 19:44:33 65° 353° (N) 346 0.8 -10.7°
Enters shadow 19:46:16 19° 73° (ENE) 815 2.1 -11.0°
